Location: ??????
(56.0120°N, 39.1740°E)
Time: 20:49:26
(UTC+00:00)

Cosmos 1869 - Pass Details

Date: 14 April 2026
Orbit: 444 x 468 km, 82.5° (Epoch: 11 May)

Event Time Altitude Azimuth Distance (km) Brightness Sun altitude
Exits shadow 19:55:04 55° 264° (W) 570 3.4 -21.8°
Maximum altitude 19:55:21 57° 285° (WNW) 559 3.4 -21.8°
Drops below altitude 10° 19:58:53 10° 6° (N) 1,642 6.6 -22.0°
Sets 20:01:01 0° 10° (N) 2,526 7.6 -22.1°
